Weather History for Orangeburg, SC

Change the Weather History Date:

Wednesday, December 5, 2012

  Actual Average Record
Temperature  
Mean Temperature 62 °F 50 °F  
Max Temperature 76 °F 62 °F 81 °F (1978)
Min Temperature 48 °F 39 °F 19 °F (1979)
Degree Days  
Heating Degree Days 3 15  
Month to date heating degree days 22 72  
Since 1 July heating degree days 472 441  
Cooling Degree Days 0 0  
Month to date cooling degree days 0 0  
Year to date cooling degree days 2320 2102  
Growing Degree Days 12 (Base 50)    
Moisture  
Dew Point 52 °F    
Average Humidity 86    
Maximum Humidity 100    
Minimum Humidity 41    
Precipitation  
Precipitation 0.00 in 0.13 in 1.68 in (1953)
Month to date precipitation 0.00 0.67  
Year to date precipitation 38.30 44.08  
Sea Level Pressure  
Sea Level Pressure 30.19 in    
Wind  
Wind Speed 4 mph (WSW)    
Max Wind Speed 17 mph    
Max Gust Speed 21 mph    
Visibility 5 miles    
Events Fog    
T = Trace of Precipitation, MM = Missing Value Source: NWS Daily Summary

Daily Weather History Graph

Daily Weather History Graph

Search for Another Location

Airport:

Trip Planner

Search our weather history database for the weather conditions in past years. The results will help you decide how hot, cold, wet, or windy it might be!

Date:

Astronomy

Dec. 05, 2012 Rise Set
Actual Time 7:13 AM EST 5:15 PM EST
Civil Twilight 6:45 AM EST 5:42 PM EST
Nautical Twilight 6:14 AM EST 6:13 PM EST
Astronomical Twilight 5:44 AM EST 6:43 PM EST
Moon 11:48 PM EST (12/5) 11:49 AM EST (12/5)
Length of Visible Light 10h 56m
Length of Day
10h 02m
Waning Gibbous, 60% of the Moon is Illuminated
Dec 5
Waning Gibbous
Dec 6
Last Quarter
Dec 13
New
Dec 20
First Quarter
Dec 28
Full

Hourly Weather History & Observations

Time (EST) Temp. Dew Point Humidity Pressure Visibility Wind Dir Wind Speed Gust Speed Precip Events Conditions
12:08 AM 55.4 °F 53.6 °F 94% 30.25 in 2.0 mi South 3.5 mph - N/A   Clear
12:16 AM 55.4 °F 55.4 °F 100% 30.24 in 6.0 mi SSE 4.6 mph - N/A   Clear
12:53 AM 57.0 °F 55.9 °F 96% 30.23 in 5.0 mi Calm Calm - N/A   Clear
1:02 AM 55.4 °F 53.6 °F 94% 30.23 in 1.5 mi Calm Calm - N/A   Clear
1:13 AM 55.4 °F 53.6 °F 94% 30.23 in 2.5 mi SSW 4.6 mph - N/A   Clear
1:20 AM 57.2 °F 55.4 °F 94% 30.23 in 7.0 mi South 3.5 mph - N/A   Clear
1:53 AM 55.9 °F 55.0 °F 97% 30.22 in 6.0 mi Calm Calm - N/A   Clear
1:58 AM 55.4 °F 55.4 °F 100% 30.23 in 1.2 mi Calm Calm - N/A   Partly Cloudy
2:05 AM 53.6 °F 53.6 °F 100% 30.23 in 0.2 mi Calm Calm - N/A Fog Fog
2:33 AM 53.6 °F 53.6 °F 100% 30.22 in 1.2 mi Calm Calm - 0.01 in   Partly Cloudy
2:37 AM 55.4 °F 53.6 °F 94% 30.22 in 2.0 mi Calm Calm - 0.01 in   Partly Cloudy
2:53 AM 55.0 °F 54.0 °F 96% 30.21 in 5.0 mi SSW 4.6 mph - 0.01 in   Clear
3:14 AM 53.6 °F 51.8 °F 94% 30.21 in 1.8 mi Calm Calm - N/A   Clear
3:22 AM 53.6 °F 51.8 °F 94% 30.21 in 1.0 mi Calm Calm - N/A   Clear
3:41 AM 51.8 °F 51.8 °F 100% 30.20 in 0.8 mi Calm Calm - N/A   Clear
3:49 AM 53.6 °F 51.8 °F 94% 30.20 in 1.8 mi Calm Calm - N/A   Clear
3:50 AM 53.6 °F 51.8 °F 94% 30.20 in 2.0 mi Calm Calm - N/A   Clear
3:53 AM 54.0 °F 52.0 °F 93% 30.20 in 3.0 mi Calm Calm - N/A   Clear
4:09 AM 53.6 °F 51.8 °F 94% 30.20 in 1.2 mi Calm Calm - N/A   Partly Cloudy
4:16 AM 51.8 °F 51.8 °F 100% 30.20 in 0.2 mi Calm Calm - N/A Fog Fog
4:53 AM 51.1 °F 48.9 °F 92% 30.19 in 0.5 mi Calm Calm - N/A Fog Fog
5:27 AM 50.0 °F 48.2 °F 94% 30.19 in 1.2 mi Calm Calm - N/A   Partly Cloudy
5:29 AM 48.2 °F 48.2 °F 100% 30.19 in 2.0 mi Calm Calm - N/A   Partly Cloudy
5:34 AM 48.2 °F 48.2 °F 100% 30.19 in 1.5 mi Calm Calm - N/A   Partly Cloudy
5:48 AM 48.2 °F 46.4 °F 93% 30.19 in 0.5 mi Calm Calm - N/A Fog Fog
5:53 AM 48.9 °F 46.9 °F 93% 30.19 in 0.5 mi Calm Calm - N/A Fog Fog
6:22 AM 48.2 °F 46.4 °F 93% 30.20 in 0.5 mi Calm Calm - N/A Fog Fog
6:53 AM 50.0 °F 48.0 °F 93% 30.21 in 0.5 mi Calm Calm - N/A Fog Fog
7:29 AM 48.2 °F 46.4 °F 93% 30.22 in 0.2 mi Calm Calm - N/A Fog Fog
7:44 AM 48.2 °F 46.4 °F 93% 30.22 in 1.8 mi Calm Calm - N/A   Mostly Cloudy
7:48 AM 48.2 °F 48.2 °F 100% 30.22 in 3.0 mi Calm Calm - N/A   Mostly Cloudy
7:53 AM 50.0 °F 48.9 °F 96% 30.22 in 5.0 mi Calm Calm - N/A   Mostly Cloudy
9:53 AM 63.0 °F 57.0 °F 81% 30.24 in 10.0 mi Variable 3.5 mph - N/A   Scattered Clouds
10:53 AM 70.0 °F 53.1 °F 55% 30.22 in 10.0 mi West 6.9 mph - N/A   Scattered Clouds
11:53 AM 73.0 °F 48.0 °F 41% 30.18 in 10.0 mi West 10.4 mph - N/A   Clear
12:53 PM 75.0 °F 52.0 °F 44% 30.15 in 10.0 mi West 12.7 mph - N/A   Clear
1:53 PM 73.9 °F 53.1 °F 48% 30.13 in 10.0 mi NW 9.2 mph - N/A   Overcast
2:53 PM 73.9 °F 53.1 °F 48% 30.11 in 10.0 mi WSW 6.9 mph - N/A   Overcast
3:53 PM 72.0 °F 54.0 °F 53% 30.11 in 10.0 mi West 6.9 mph - N/A   Overcast
4:53 PM 70.0 °F 54.0 °F 57% 30.11 in 10.0 mi WSW 4.6 mph - N/A   Overcast
5:53 PM 68.0 °F 55.0 °F 63% 30.11 in 10.0 mi Calm Calm - N/A   Overcast
6:53 PM 63.0 °F 54.0 °F 72% 30.12 in 10.0 mi Calm Calm - N/A   Scattered Clouds
7:53 PM 61.0 °F 54.0 °F 78% 30.13 in 10.0 mi Calm Calm - N/A   Clear
8:53 PM 61.0 °F 55.0 °F 81% 30.14 in 10.0 mi Calm Calm - N/A   Overcast
9:53 PM 64.0 °F 55.9 °F 75% 30.15 in 10.0 mi NE 9.2 mph - N/A   Partly Cloudy
10:53 PM 62.1 °F 55.9 °F 80% 30.16 in 10.0 mi ENE 3.5 mph - N/A   Clear
11:53 PM 61.0 °F 55.9 °F 83% 30.15 in 10.0 mi NNE 3.5 mph - N/A   Mostly Cloudy